Regional Weather Roundup
Issued by NWS

Home | Current Version | Previous Version | Text Only | Print | Product List | Glossary On
Versions: 1 2 3 4 5 6 7 8 9 10 11 12 13 14 15 16 17 18 19 20 21 22 23 24 25 26 27 28 29 30 31 32 33 34 35 36 37 38 39 40 41 42 43 44 45 46 47 48 49 50
000
ASUS43 KDMX 222006
RWRIA

WEATHER ROUNDUP FOR IOWA
NATIONAL WEATHER SERVICE DES MOINES IA
300 PM CDT WED MAR 22 2017

NOTE: "FAIR" INDICATES FEW OR NO CLOUDS BELOW 12,000 FEET WITH NO
SIGNIFICANT WEATHER AND/OR OBSTRUCTIONS TO VISIBILITY.

* - THESE STATIONS ARE NOT NWS STATIONS...THUS NOT UNDER NWS
QUALITY CONTROL.  THEY ALSO DO NOT REPORT WEATHER SUCH
AS PRECIPITATION OR FOG.

IAZ001>003-012>014-020>022-031>034-043>046-222100-
   NORTHWEST IOWA

CITY           SKY/WX    TMP DP  RH WIND       PRES   REMARKS
CARROLL *      CLOUDY    39  27  60 SE18      30.34F WCI  30
CHEROKEE *     CLOUDY    37  24  60 SE13G18   30.34F WCI  29
DENISON *      CLOUDY    39  27  60 SE14      30.31F WCI  31
LE MARS *      CLOUDY    39  25  56 SE15G23   30.32F WCI  31
ORANGE CITY *  CLOUDY    36  25  64 SE12G20   30.31F WCI  27
SHELDON *      CLOUDY    34  27  75 SE17      30.31F WCI  23
SIOUX CITY     CLOUDY    40  24  53 SE17      30.30F WCI  31
SPENCER        CLOUDY    36  24  62 SE17      30.36F WCI  26
STORM LAKE *   CLOUDY    36  23  60 SE16      30.34F WCI  26
$$

IAZ055>058-069>071-079>083-090>094-222100-
   SOUTHWEST IOWA

CITY           SKY/WX    TMP DP  RH WIND       PRES   REMARKS
ATLANTIC *     CLOUDY    45  25  45 SE13G21   30.32F
AUDUBON *      CLOUDY    41  28  60 E14G20    30.34F
CLARINDA *     MOSUNNY   50  27  40 SE12      30.33F
COUNCIL BLFS * MOSUNNY   50  19  29 SE18      30.28F
CRESTON *      CLOUDY    45  25  45 E16       30.35F
HARLAN  *      CLOUDY    46  27  46 SE17G24   30.34F
LAMONI         PTSUNNY   48  28  46 E10G18    30.34F
RED OAK *      MOSUNNY   50  25  37 SE16      30.31F
SHENANDOAH *   PTSUNNY   50  25  37 SE14G21   30.31F
$$

IAZ047>049-059>061-072>074-084-222100-
   CENTRAL IOWA

CITY           SKY/WX    TMP DP  RH WIND       PRES   REMARKS
AMES           CLOUDY    42  24  49 SE15G21   30.40F
ANKENY *       PTSUNNY   43  25  49 MISG      30.41F
BOONE *        CLOUDY    41  21  45 SE15G23   30.38F
CHARITON *     CLOUDY    46  23  39 E14       30.38F
DES MOINES     CLOUDY    44  24  45 E10       30.40F
GRINNELL*      PTSUNNY   42  16  35 SE14      30.43F
KNOXVILLE *    PTSUNNY   45  23  42 SE10G17   30.39F
MARSHALLTOWN   PTSUNNY   41  21  44 SE15      30.42F
NEWTON *       CLOUDY    43  19  39 E10G17    30.41F
PELLA *        MOSUNNY   44  23  43 SE9       30.43F
PERRY *        CLOUDY    41  23  49 SE14      30.38F
$$

IAZ004>006-015-016-023>025-035-036-222100-
   NORTH CENTRAL IOWA

CITY           SKY/WX    TMP DP  RH WIND       PRES   REMARKS
ALGONA *       CLOUDY    37  25  60 SE15      30.39F WCI  28
CLARION *      CLOUDY    39  23  52 SE14      30.40F WCI  31
ESTHERVILLE    CLOUDY    33  24  69 SE20      30.37F WCI  21
FORT DODGE *   PTSUNNY   41  23  48 SE9G16    30.40F
MASON CITY     CLOUDY    37  19  48 SE13      30.43F WCI  29
FOREST CITY *  PTSUNNY   36  23  60 SE12      30.41F WCI  27
WEBSTER CITY * CLOUDY    41  21  45 SE16      30.38F
IOWA FALLS *   PTSUNNY   41  22  46 SE12G17   30.43F
$$

IAZ007>011-017>019-026>030-037>042-050>054-066-222100-
   NORTHEAST IOWA

CITY           SKY/WX    TMP DP  RH WIND       PRES   REMARKS
CEDAR RAPIDS   SUNNY     44  15  31 SE10      30.44F
CHARLES CITY * MOSUNNY   39  16  38 S14       30.45F WCI  31
CLINTON *      SUNNY     41  17  38 SE17      30.50F
DECORAH *      SUNNY     37  10  32 SE8G15    30.45F WCI  31
DUBUQUE        SUNNY     38  12  34 E10G20    30.48F WCI  31
MONTICELLO *   SUNNY     41  14  33 E13       30.47F
OELWEIN *      SUNNY     41  16  36 SE12G22   30.46F
WATERLOO       MOSUNNY   41  16  36 SE10G18   30.44F
$$

IAZ064-065-067-068-078-222100-
   EAST CENTRAL IOWA

CITY           SKY/WX    TMP DP  RH WIND       PRES   REMARKS
DAVENPORT      SUNNY     41  16  36 E12G22    30.49F
IOWA CITY      SUNNY     44  17  33 E12G22    30.48F
MUSCATINE *    SUNNY     45  18  33 SE13G18   30.48F
QUAD CITIES    SUNNY     43  17  35 SE9       30.49F
$$

IAZ062-063-075>077-085>089-095>099-222100-
   SOUTHEAST IOWA

CITY           SKY/WX    TMP DP  RH WIND       PRES   REMARKS
BURLINGTON     SUNNY     45  19  35 SE12      30.45F
FAIRFIELD *    CLOUDY    43  21  42 SE13G24   30.43F
FORT MADISON * SUNNY     48  21  34 E14       30.44F
KEOKUK *       SUNNY     46  16  29 E15       30.43F
OSKALOOSA *    CLOUDY    44  22  42 SE14      30.43F
CENTERVILLE *    N/A     46  23  39 E9G18     30.39F
OTTUMWA        CLOUDY    45  22  40 SE13      30.41F
WASHINGTON *   SUNNY     45  19  36 E16       30.45F
$$

ABBREVIATIONS USED IN REMARKS
   TC - TEMPERATURES IN CELSIUS
  WCI - WIND CHILL INDEX
   HX - HEAT INDEX
  VSB - VISIBILITY
$$





USA.gov is the U.S. government's official web portal to all federal, state and local government web resources and services.